EW1850 Weather Reports


time (UTC)temp
F
wind
direction
speed
knots
gust
knots
rain 1hr
in
rain 24hr
in
rain mn
in
humidity
%
barometer
mb
20260504151029 76 166 1.7 4.3 0.00 0.00 0.00 100 1000.3
20260504141128 72 207 0.9 4.3 0.00 0.00 0.00 100 1000.6
20260504140129 71 202 0.0 2.6 0.00 0.00 0.00 100 1001.0
20260504120230 60 157 0.0 0.9 0.00 0.00 0.00 100 1000.6
20260504110329 58 180 0.0 0.0 0.00 0.00 0.00 100 1000.0
20260504100427 59 161 0.0 0.0 0.00 0.00 0.00 100 1000.0
20260504081829 58 337 0.0 0.0 0.00 0.00 0.00 100 1000.0
20260504080829 58 225 0.0 0.0 0.00 0.00 0.00 100 1000.0
20260504045217 59 202 0.0 0.9 0.00 0.00 0.00 100 1001.7
20260504044216 59 179 1.7 5.2 0.00 0.00 0.00 100 1002.0
20260504043217 59 202 0.9 3.5 0.00 0.00 0.00 100 1002.0
20260504042316 59 112 0.0 0.0 0.00 0.00 0.00 100 1002.0
20260504041318 59 270 0.0 0.0 0.00 0.00 0.00 100 1002.0
20260504040316 59 202 0.0 1.7 0.00 0.00 0.00 100 1002.0
20260504035316 59 157 0.0 0.0 0.00 0.00 0.00 100 1002.0
20260504034415 58 202 0.0 0.0 0.00 0.00 0.00 100 1002.0
20260504033419 58 180 0.0 0.0 0.00 0.00 0.00 100 1002.4
20260504033319 58 180 0.0 0.0 0.00 0.00 0.00 100 1002.4
20260504032416 59 180 0.0 0.0 0.00 0.00 0.00 100 1002.4
20260504031516 58 179 0.9 4.3 0.00 0.00 0.00 100 1002.7
20260504030517 59 247 0.0 0.0 0.00 0.00 0.00 100 1002.7
20260504025518 59 247 0.0 0.0 0.00 0.00 0.00 100 1002.7
20260504024516 59 247 0.0 0.0 0.00 0.00 0.00 100 1002.7
20260504023518 59 247 0.0 0.0 0.00 0.00 0.00 100 1002.4
20260504022518 60 247 0.0 0.0 0.00 0.00 0.00 100 1002.4
20260504021518 61 247 0.0 1.7 0.00 0.00 0.00 100 1002.0
20260504020615 61 225 0.0 1.7 0.00 0.00 0.00 100 1002.0
20260504015616 61 174 0.0 2.6 0.00 0.00 0.00 100 1001.3
20260504014715 62 157 0.0 0.0 0.00 0.00 0.00 100 1001.3
20260504013717 62 173 0.9 6.1 0.00 0.00 0.00 100 1001.3
20260504012815 62 201 0.9 6.1 0.00 0.00 0.00 100 1001.3
20260504011818 62 177 0.0 0.0 0.00 0.00 0.00 100 1001.3
20260504011718 62 180 0.0 0.0 0.00 0.00 0.00 100 1001.3
20260504010716 62 191 0.0 0.0 0.00 0.00 0.00 100 1001.3
20260504005733 63 135 0.0 0.9 0.00 0.00 0.00 100 1001.7
20260504004718 63 186 0.9 3.5 0.00 0.00 0.00 100 1001.3
20260504002816 64 169 1.7 7.0 0.00 0.00 0.00 100 1002.0
20260504001818 64 229 0.0 2.6 0.00 0.00 0.00 100 1002.0
20260504000915 64 232 0.9 5.2 0.00 0.00 0.00 100 1002.0
20260503235916 65 247 0.0 1.7 0.00 0.00 0.00 100 1002.0
20260503234915 65 202 0.0 0.9 0.00 0.00 0.00 100 1002.0
20260503233919 66 180 1.7 6.1 0.00 0.00 0.00 100 1002.0
20260503231017 66 202 0.0 0.0 0.00 0.00 0.00 100 1003.1
20260503230018 66 215 0.0 0.9 0.00 0.00 0.00 100 1003.1
20260503225016 67 191 1.7 5.2 0.00 0.00 0.00 100 1003.4
20260503223116 69 202 0.9 3.5 0.00 0.00 0.00 100 1003.4
20260503222116 70 225 0.9 2.6 0.00 0.00 0.00 100 1003.8
20260503221118 71 199 1.7 5.2 0.00 0.00 0.00 100 1004.1
20260503220216 71 173 1.7 5.2 0.00 0.00 0.00 100 1004.1
20260503215216 71 177 2.6 7.8 0.00 0.00 0.00 100 1004.4
20260503214217 71 330 0.9 5.2 0.00 0.00 0.00 100 1004.4
20260503211217 70 201 1.7 5.2 0.00 0.00 0.00 100 1005.1
20260503210216 71 181 2.6 7.8 0.00 0.00 0.00 100 1005.1
20260503205216 71 203 0.9 4.3 0.00 0.00 0.00 100 1005.4
20260503204218 71 202 1.7 4.3 0.00 0.00 0.00 100 1005.8
20260503203315 71 226 0.0 2.6 0.00 0.00 0.00 100 1005.8
20260503202316 71 186 0.0 1.7 0.00 0.00 0.00 100 1005.8
20260503201332 72 163 2.6 5.2 0.00 0.00 0.00 100 1005.9
20260503200415 72 190 1.7 6.1 0.00 0.00 0.00 100 1006.1
20260503195417 72 169 0.9 5.2 0.00 0.00 0.00 100 1006.1
20260503193418 70 170 4.3 9.6 0.00 0.00 0.00 100 1006.8
20260503192418 70 243 2.6 8.7 0.00 0.00 0.00 100 1006.8
20260503191516 69 234 1.7 5.2 0.00 0.00 0.00 100 1006.8
20260503190516 70 247 0.0 2.6 0.00 0.00 0.00 100 1007.1
20260503185516 69 180 0.0 1.7 0.00 0.00 0.00 100 1007.5
20260503184516 68 169 2.6 6.1 0.00 0.00 0.00 100 1007.9
20260503183516 68 181 2.6 5.2 0.00 0.00 0.00 100 1007.9
20260503182516 68 216 2.6 4.3 0.00 0.00 0.00 100 1008.2
20260503181518 69 209 2.6 6.1 0.00 0.00 0.00 100 1008.2
20260503180415 68 243 0.0 1.7 0.00 0.00 0.00 100 1008.2
20260503175417 67 230 3.5 7.0 0.00 0.00 0.00 100 1008.5
20260503174416 66 174 3.5 8.7 0.00 0.00 0.00 100 1008.9
20260503173418 66 205 2.6 5.2 0.00 0.00 0.00 100 1009.2
20260503172516 66 183 1.7 8.7 0.00 0.00 0.00 100 1009.2
20260503171516 65 148 1.7 5.2 0.00 0.00 0.00 100 1009.5
20260503170615 65 214 0.9 5.2 0.00 0.00 0.00 100 1009.5
20260503170533 65 236 3.5 6.1 0.00 0.00 0.00 100 1009.5